Aurora, OR

8:01 PM PDT on June 25, 2017 (GMT -0700)
Aurora State

Weather History for KUAO - May, 2014

Change the Weather History Date:

Saturday, May 17, 2014

  Actual Average Record
Temperature  
Mean Temperature 60 °F -  
Max Temperature 70 °F - 91 °F (2008)
Min Temperature 50 °F - 37 °F (2003)
Degree Days  
Heating Degree Days 5    
Month to date heating degree days 115  
Since 1 July heating degree days 4442  
Cooling Degree Days 0    
Month to date cooling degree days 20  
Year to date cooling degree days 25  
Growing Degree Days 10 (Base 50)    
Moisture  
Dew Point 48 °F    
Average Humidity 68    
Maximum Humidity 93    
Minimum Humidity 42    
Precipitation  
Precipitation 0.06 in - 0.65 in (1999)
Month to date precipitation 1.52  
Year to date precipitation 20.40  
Sea Level Pressure  
Sea Level Pressure 30.00 in    
Wind  
Wind Speed 3 mph (South)    
Max Wind Speed 18 mph    
Max Gust Speed 24 mph    
Visibility 10 miles    
Events Rain , Thunderstorm    
T = Trace of Precipitation, MM = Missing Value Source: NWS Daily Summary

Daily Weather History Graph

Daily Weather History Graph

Search for Another Location

Airport or City:

Trip Planner

Search our weather history database for the weather conditions in past years. The results will help you decide how hot, cold, wet, or windy it might be!

Date:

Astronomy

May. 17, 2014 Rise Set
Actual Time 5:38 AM PDT 8:36 PM PDT
Civil Twilight 5:04 AM PDT 9:11 PM PDT
Nautical Twilight 4:19 AM PDT 9:56 PM PDT
Astronomical Twilight 3:27 AM PDT 10:49 PM PDT
Moon 11:40 PM PDT (5/17) 8:28 AM PDT (5/17)
Length of Visible Light 16h 07m
Length of Day
14h 57m
Waning Gibbous, 88% of the Moon is Illuminated
May 17
Waning Gibbous
May 21
Last Quarter
May 28
New
Jun 5
First Quarter
Jun 12
Full

Hourly Weather History & Observations

Time (PDT) Temp. Dew Point Humidity Pressure Visibility Wind Dir Wind Speed Gust Speed Precip Events Conditions
12:53 AM 52.0 °F 48.0 °F 86% 30.11 in 10.0 mi SSW 3.5 mph - N/A   Clear
1:53 AM 51.1 °F 48.0 °F 89% 30.12 in 10.0 mi Calm Calm - N/A   Mostly Cloudy
2:53 AM 52.0 °F 48.9 °F 89% 30.12 in 10.0 mi South 3.5 mph - N/A   Overcast
3:53 AM 53.1 °F 48.0 °F 83% 30.10 in 9.0 mi SSE 4.6 mph - N/A   Overcast
4:53 AM 53.1 °F 48.0 °F 83% 30.08 in 10.0 mi East 3.5 mph - N/A   Overcast
5:53 AM 52.0 °F 48.9 °F 89% 30.09 in 10.0 mi South 3.5 mph - N/A   Overcast
6:07 AM 52.0 °F 48.9 °F 89% 30.08 in 10.0 mi Calm Calm - N/A   Overcast
6:53 AM 53.1 °F 48.9 °F 86% 30.06 in 10.0 mi Calm Calm - N/A   Overcast
7:53 AM 54.0 °F 48.9 °F 83% 30.07 in 10.0 mi WSW 4.6 mph - N/A   Overcast
8:53 AM 55.0 °F 48.0 °F 77% 30.06 in 10.0 mi WSW 5.8 mph - N/A   Overcast
9:53 AM 57.0 °F 48.9 °F 74% 30.05 in 10.0 mi Variable 4.6 mph - N/A   Overcast
10:53 AM 59.0 °F 48.9 °F 69% 30.05 in 10.0 mi SSW 9.2 mph - N/A   Overcast
11:53 AM 60.1 °F 46.9 °F 62% 30.04 in 10.0 mi Variable 5.8 mph - N/A   Overcast
12:53 PM 62.1 °F 46.0 °F 56% 30.03 in 10.0 mi South 5.8 mph - N/A   Scattered Clouds
1:53 PM 64.9 °F 46.0 °F 50% 30.00 in 10.0 mi South 3.5 mph - N/A   Mostly Cloudy
2:53 PM 64.9 °F 46.0 °F 50% 29.98 in 10.0 mi Variable 4.6 mph - N/A   Scattered Clouds
3:53 PM 68.0 °F 48.0 °F 49% 29.96 in 10.0 mi WSW 4.6 mph - N/A   Clear
4:53 PM 68.0 °F 45.0 °F 43% 29.93 in 10.0 mi Calm Calm - N/A   Partly Cloudy
5:53 PM 68.0 °F 46.0 °F 45% 29.91 in 10.0 mi ESE 4.6 mph - N/A   Clear
6:53 PM 69.1 °F 46.0 °F 44% 29.89 in 10.0 mi Calm Calm - N/A   Clear
7:53 PM 66.0 °F 46.9 °F 50% 29.87 in 10.0 mi Calm Calm - N/A   Clear
8:53 PM 61.0 °F 48.9 °F 64% 29.87 in 10.0 mi Calm Calm - N/A   Partly Cloudy
9:11 PM 59.0 °F 51.1 °F 75% 29.88 in 10.0 mi South 10.4 mph - N/A Thunderstorm Thunderstorm
9:38 PM 57.9 °F 50.0 °F 75% 29.88 in 8.0 mi SE 6.9 mph 19.6 mph 0.04 in Rain Light Rain
10:53 PM 55.0 °F 53.1 °F 93% 29.89 in 10.0 mi Calm Calm - 0.06 in   Scattered Clouds
11:53 PM 54.0 °F 51.1 °F 90% 29.90 in 10.0 mi WSW 5.8 mph - N/A   Overcast